This demonstration page uses our WeatherBlox Daily Observations layout. Learn more.

Left ArrowRight Arrow

39.01783, -85.05884

Hourly Observations for August 19, 2021

Temp ( °F °C ) Dew Point ( °F °C ) Humidity (%) Winds ( mph kmh ) Pressure ( in mb ) Visibility ( mi km ) Precip ( " mm )
12:52 am 00:52 Cloudy 76 24.4 70 21.1 82 82 SW 5 7 30.09 1019 10 16 0.00 0.00
1:52 am 01:52 Cloudy 76 24.4 70 21.1 82 82 WSW 5 7 30.08 1019 10 16 0.00 0.00
2:52 am 02:52 Cloudy 75 23.9 70 21.1 84 84 WSW 5 7 30.08 1019 10 16 0.00 0.00
3:52 am 03:52 Cloudy with Light Rain 74 23.3 70 21.1 88 88 WSW 3 6 30.08 1019 10 16 0.00 0.00
4:52 am 04:52 Cloudy with Light Rain 74 23.3 71 21.7 91 91 Calm 30.07 1018 9 14 0.01 0.25
5:45 am 05:45 Cloudy 73 22.8 70 21.1 90 90 Calm 30.07 1018 10 16 0.00 0.00
5:52 am 05:52 Cloudy 73 22.8 70 21.1 90 90 Calm 30.07 1018 10 16 0.00 0.00
6:52 am 06:52 Cloudy with Mist and Fog 73 22.8 71 21.7 94 94 Calm 30.08 1019 3 5 0.00 0.00
7:08 am 07:08 Cloudy with Light Rain 74 23.3 71 21.7 91 91 Calm 30.08 1019 3 5 0.00 0.00
7:39 am 07:39 Cloudy with Light Rain 74 23.3 71 21.7 91 91 Calm 30.09 1019 6 10 0.00 0.00
7:52 am 07:52 Cloudy 74 23.3 71 21.7 91 91 Calm 30.08 1019 7 11 0.00 0.00
8:45 am 08:45 Cloudy with Rain 74 23.3 70 21.1 88 88 Calm 30.10 1019 3 5 0.04 1.02
8:52 am 08:52 Cloudy with Rain 74 23.3 70 21.1 88 88 Calm 30.09 1019 3 5 0.05 1.27
9:11 am 09:11 Cloudy with Light Rain 73 22.8 68 20 84 84 E 9 15 30.10 1019 5 8 0.02 0.51
9:52 am 09:52 Cloudy with Light Rain 72 22.2 67 19.4 84 84 E 9 15 30.09 1019 5 8 0.04 1.02
10:52 am 10:52 Cloudy with Light Rain 73 22.8 69 20.6 87 87 ESE 3 6 30.09 1019 8 13 0.05 1.27
11:12 am 11:12 Cloudy 73 22.8 69 20.6 87 87 SSE 8 13 30.10 1019 8 13 0.00 0.00
11:52 am 11:52 Cloudy 74 23.3 69 20.6 85 85 S 5 7 30.09 1019 8 13 0.00 0.00
12:52 pm 12:52 Mostly Sunny 78 25.6 68 20 71 71 Calm 30.08 1019 10 16 0.00 0.00
1:52 pm 13:52 Mostly Cloudy 80 26.7 67 19.4 64 64 S 3 6 30.07 1018 10 16 0.00 0.00
2:52 pm 14:52 Mostly Cloudy 82 27.8 65 18.3 56 56 Calm 30.06 1018 10 16 0.00 0.00
3:52 pm 15:52 Mostly Cloudy 85 29.4 66 18.9 53 53 Calm 30.04 1017 10 16 0.00 0.00
4:52 pm 16:52 Mostly Cloudy 86 30 66 18.9 51 51 VRB 5 7 30.02 1017 10 16 0.00 0.00
5:52 pm 17:52 Partly Cloudy 84 28.9 66 18.9 55 55 ESE 8 13 30.00 1016 10 16 0.00 0.00
6:52 pm 18:52 Mostly Cloudy 82 27.8 67 19.4 60 60 Calm 30.01 1016 10 16 0.00 0.00
7:52 pm 19:52 Partly Cloudy 81 27.2 66 18.9 61 61 ESE 5 7 30.00 1016 10 16 0.00 0.00
8:52 pm 20:52 Mostly Cloudy 79 26.1 67 19.4 67 67 SE 6 9 30.01 1016 10 16 0.00 0.00
9:52 pm 21:52 Partly Cloudy 76 24.4 68 20 77 77 SSW 5 7 30.02 1017 10 16 0.00 0.00
10:52 pm 22:52 Partly Cloudy 74 23.3 67 19.4 79 79 SSW 5 7 30.03 1017 10 16 0.00 0.00
11:52 pm 23:52 Clear 72 22.2 67 19.4 84 84 S 3 6 30.01 1016 10 16 0.00 0.00

Powered by AerisWeather